Location: Alphen
(52.1351°N, 4.6549°E)
Time: 01:57:47
(UTC+00:00)

USA 305 - Pass Details

Date: 27 January 2021
Orbit: 565 x 578 km, 54.0° (Epoch: 25 February)

Event Time Altitude Azimuth Distance (km) Brightness Sun altitude
Exits shadow 06:26:47 - 256° (WSW) 1,959 5.1 -9.6°
Reaches altitude 10° 06:27:02 10° 256° (WSW) 1,861 5.0 -9.5°
Maximum altitude 06:31:16 83° 344° (NNW) 576 2.9 -8.9°
Drops below altitude 10° 06:35:31 10° 74° (ENE) 1,865 6.4 -8.3°
Sets 06:37:46 0° 75° (ENE) 2,764 7.4 -8.0°
